Flag for Poland Weather past 2 weeks in Kraków, Poland

Now
64 °F

Passing clouds.


Feels Like: 64 °F
Forecast: 52 / 63 °F
Wind: 5 mph from Southwest

Location: Krakow Airport

Current Time: Sep 5, 2015 at 12:38:35 PM

Latest Report: Sep 5, 2015 at 12:00 PM


Visibility: N/A

Pressure: 29.89 "Hg

Humidity: 68%

Dew point: 54 °F

Location of KrakówLocation

Historic Weather in Kraków — Graph

°F

Kraków temperature yesterday

Maximum temperature yesterday: 66 °F (at 3:00 PM)
Minimum temperature yesterday: 52 °F (at 11:30 PM)
Average temperature yesterday: 60 °F

Past Weeks' High & Low Weather Summary

 TemperatureHumidityPressure
High95 °F (Aug 31, 4:30 PM)100% (Aug 25, 9:30 PM)30.30 "Hg (Aug 25, 9:30 PM)
Low48 °F (Sep 5, 3:00 AM)23% (Sep 1, 1:00 PM)29.74 "Hg (Sep 1, 4:30 PM)
Average67 °F71%30.04 "Hg
* Reported Aug 21 11:00 AM — Sep 5 11:30 AM, Kraków, Weather by CustomWeather, © 2015

Note: Actual official high and low records may vary slightly from our data, if they occured in-between our weather recording intervals... More about our weather records

Advertising

Kraków weather history for previous 24 hours

 ConditionsComfort  
Time TempWeatherWind HumidityBarometerVisibility
11:30 AM
Sat, Sep 5
63 °FSunny.2 mph73%29.89 "Hg10 mi
11:00 AM61 °FSunny.1 mph77%29.89 "Hg10 mi
10:30 AM59 °FSunny.2 mph82%29.92 "Hg10 mi
10:00 AM57 °FSunny.1 mph88%29.92 "Hg10 mi
9:30 AM57 °FClear.No wind88%29.92 "Hg5 mi
9:00 AM55 °FClear.1 mph88%29.92 "Hg5 mi
8:30 AM54 °FClear.1 mph94%29.92 "Hg5 mi
8:00 AM52 °FClear.2 mph94%29.92 "Hg5 mi
7:30 AM52 °FClear.1 mph94%29.92 "Hg4 mi
7:00 AM52 °FClear.1 mph94%29.92 "Hg4 mi
6:30 AM50 °FClear.2 mph100%29.92 "Hg4 mi
6:00 AM50 °FClear.2 mph94%29.92 "Hg4 mi
5:30 AM50 °FClear.2 mph94%29.92 "Hg4 mi
5:00 AM50 °FClear.3 mph94%29.92 "Hg4 mi
4:30 AM50 °FClear.1 mph94%29.92 "Hg4 mi
4:00 AM48 °FClear.3 mph100%29.95 "Hg4 mi
3:30 AM50 °FClear.2 mph94%29.95 "Hg4 mi
3:00 AM48 °FClear.2 mph100%29.95 "Hg4 mi
2:30 AM50 °FClear.2 mph100%29.95 "Hg4 mi
2:00 AM50 °FClear.3 mph100%29.95 "Hg5 mi
1:30 AM50 °FClear.1 mph100%29.95 "Hg5 mi
1:00 AM50 °FClear.2 mph100%29.95 "Hg5 mi
12:30 AM50 °FClear.2 mph94%29.95 "Hg10 mi
12:00 AM52 °FClear.1 mph94%29.98 "Hg10 mi
11:30 PM
Fri, Sep 4
52 °FClear.2 mph94%29.95 "Hg10 mi
11:00 PM54 °FClear.1 mph94%29.95 "Hg10 mi
10:30 PM54 °FClear.1 mph94%29.95 "Hg10 mi
10:00 PM55 °FClear.2 mph88%29.95 "Hg10 mi
9:30 PM55 °FClear.1 mph88%29.98 "Hg10 mi
9:00 PM55 °FClear.1 mph88%29.95 "Hg10 mi
8:30 PM57 °FClear.1 mph88%29.98 "Hg10 mi
8:00 PM57 °FSunny.2 mph88%29.98 "Hg10 mi
7:30 PM61 °FSunny.1 mph77%29.95 "Hg10 mi
7:00 PM64 °FSunny.2 mph68%29.95 "Hg10 mi
6:30 PM64 °FPassing clouds.6 mph64%29.95 "HgN/A
6:00 PM66 °FPassing clouds.8 mph64%29.95 "HgN/A
5:30 PM66 °FPassing clouds.10 mph64%29.95 "HgN/A
5:00 PM66 °FPassing clouds.7 mph68%29.95 "HgN/A
4:30 PM66 °FScattered clouds.9 mph68%29.95 "HgN/A
4:00 PM64 °FScattered clouds.12 mph73%29.95 "HgN/A
3:30 PM66 °FScattered clouds.14 mph68%29.95 "HgN/A
3:00 PM66 °FScattered clouds.13 mph68%29.95 "HgN/A
2:30 PM64 °FScattered clouds.12 mph73%29.95 "HgN/A
2:00 PM64 °FScattered clouds.10 mph78%29.95 "HgN/A
1:30 PM64 °FScattered clouds.13 mph78%29.95 "HgN/A
1:00 PM63 °FBroken clouds.12 mph83%29.95 "HgN/A
12:30 PM61 °FBroken clouds.9 mph88%29.95 "HgN/A
12:00 PM61 °FSprinkles. Broken clouds.8 mph88%29.95 "HgN/A
Weather by CustomWeather, © 2015

See weather overviewHow to use our weather pages